{"data":{"norad_id":69498,"intl_designator":"2026-131W","name":"STARLINK-37853","alt_names":[],"object_type":"PAYLOAD","status":"ACTIVE","operator":null,"country":"US","launch_date":"2026-06-11","launch_site_code":"AFWTR","launch_vehicle":null,"mission":null,"orbit_class":"UNKNOWN","rcs_meters":null,"size_class":null,"mass_kg":null,"dimensions":null,"purposes":["comms"],"wikipedia_slug":null,"has_3d_model":false,"image_url":null,"decayed_at":null,"tle_current":{"epoch":"2026-09-20T01:24:32.246784Z","epoch_age_seconds":63608,"freshness":"FRESH","line1":"1 69498U 26131W   26263.05870656  .00013359  00000+0  41561-3 0  9995","line2":"2 69498  97.2871 286.8861 0000425 126.9415 233.1866 15.33429522 15764","mean_motion":15.33429522,"eccentricity":4.25e-5,"inclination_deg":97.2871,"raan_deg":286.8861,"arg_perigee_deg":126.9415,"mean_anomaly_deg":233.1866,"bstar":0.00041561,"rev_number":1576,"period_min":93.907152519267,"perigee_km":465.29836813917,"apogee_km":465.88008486842,"semimajor_km":6843.7262265038,"source":"CELESTRAK","updated_at":"2026-09-20T09:00:44.209301Z"}}}